Location: Nitra
(0.0000°N, 18.0833°E)
Time: 15:11:02
(UTC+02:00)

STRAND 1 - Pass Details

Date: 07 June 2023
Orbit: 766 x 779 km, 98.4° (Epoch: 23 September)

Event Time Altitude Azimuth Distance (km) Brightness Sun altitude
Rises 06:06:26 0° 135° (SE) 3,234 ? -9.2°
Reaches altitude 10° 06:09:40 10° 113° (ESE) 2,307 ? -8.5°
Maximum altitude 06:12:38 16° 77° (ENE) 1,942 ? -7.8°
Drops below altitude 10° 06:15:35 10° 41° (NE) 2,305 ? -7.1°
Sets 06:18:47 0° 20° (NNE) 3,231 ? -6.4°
